Date String (YYYY-MM-DD hh:mm:ss) UTC,Instrument flags,Ambient pressure (hPa),Sample flow (lpm),Bypass flow (lpm),Sample temperature (°C),Ambient temperature (°C),ASC tube jacket temperature (°C),LED temperature (°C),Box temperature (°C),Sample RH (%),Span deviation,Mass concentration (μg/m³),Mass concentration (μg/m³),Mass concentration (μg/m³)
DateTimeUTC,F1_M11,P_M11,Q1_M11,Q2_M11,T1_M11,T2_M11,T3_M11,T4_M11,T5_M11,U1_M11,ZSPAN_M11,X0_M11,X2_M11,X1_M11
2022-08-19 06:00:00,,0829.8,4.98,0.00,29.6,27.4,00.0,38.3,31.3,22.2,0000.0,0013.82,0006.55,0005.75
2022-08-19 06:01:00,,0829.8,5.01,0.00,29.5,27.4,00.0,38.3,31.2,22.1,0000.0,0014.04,0006.55,0005.76
2022-08-19 06:02:00,,0829.8,5.01,0.00,29.5,27.5,00.0,38.3,31.3,22.2,0000.0,0014.01,0006.54,0005.75
2022-08-19 06:03:00,,0829.8,4.99,0.00,29.5,27.7,00.0,38.3,31.2,22.2,0000.0,0014.03,0006.58,0005.76
2022-08-19 06:04:00,,0829.8,5.01,0.00,29.5,27.8,00.0,38.3,31.3,22.2,0000.0,0013.91,0006.59,0005.76
2022-08-19 06:05:00,,0829.8,5.01,0.00,29.5,27.9,00.0,38.3,31.3,22.3,0000.0,0013.13,0006.60,0005.76
2022-08-19 06:06:00,,0829.8,5.01,0.00,29.5,28.0,00.0,38.3,31.3,22.1,0000.0,0012.60,0006.57,0005.75
2022-08-19 06:07:00,,0829.8,5.00,0.00,29.5,28.1,00.0,38.3,31.4,22.0,0000.0,0011.85,0006.60,0005.75
2022-08-19 06:08:00,,0829.8,5.00,0.00,29.5,28.2,00.0,38.3,31.4,22.0,0000.0,0011.75,0006.63,0005.75
2022-08-19 06:09:00,,0829.7,5.00,0.00,29.5,28.3,00.0,38.3,31.4,21.9,0000.0,0011.89,0006.63,0005.74
2022-08-19 06:10:00,,0829.8,5.00,0.00,29.6,28.4,00.0,38.3,31.5,21.9,0000.0,0011.76,0006.64,0005.74
2022-08-19 06:11:00,,0829.8,5.00,0.00,29.6,28.5,00.0,38.3,31.5,21.9,0000.0,0011.64,0006.63,0005.72
2022-08-19 06:12:00,,0829.7,4.99,0.00,29.6,28.6,00.0,38.3,31.5,21.8,0000.0,0011.64,0006.66,0005.70
2022-08-19 06:13:00,,0829.7,4.99,0.00,29.6,28.6,00.0,38.3,31.6,21.9,0000.0,0011.61,0006.66,0005.68
2022-08-19 06:14:00,,0829.7,4.99,0.00,29.7,28.7,00.0,38.4,31.6,21.8,0000.0,0011.44,0006.60,0005.66
2022-08-19 06:15:00,,0829.7,5.00,0.00,29.7,28.7,00.0,38.4,31.6,21.7,0000.0,0011.76,0006.56,0005.63
2022-08-19 06:16:00,,0829.6,5.00,0.00,29.7,28.8,00.0,38.4,31.7,21.9,0000.0,0011.35,0006.47,0005.61
2022-08-19 06:17:00,,0829.6,5.00,0.00,29.8,28.8,00.0,38.4,31.7,21.8,0000.0,0011.10,0006.42,0005.58
2022-08-19 06:18:00,,0829.7,5.00,0.00,29.7,28.3,00.0,38.4,31.5,21.7,0000.0,0011.39,0006.39,0005.57
2022-08-19 06:19:00,,0829.6,5.01,0.00,29.7,27.6,00.0,38.3,31.4,21.9,0000.0,0011.95,0006.34,0005.56
2022-08-19 06:20:00,,0829.7,4.98,0.00,29.6,27.4,00.0,38.3,31.3,21.9,0000.0,0011.71,0006.33,0005.54
2022-08-19 06:21:00,,0829.5,5.01,0.00,29.5,27.4,00.0,38.3,31.2,22.0,0000.0,0011.95,0006.30,0005.52
2022-08-19 06:22:00,,0829.7,5.00,0.00,29.5,27.5,00.0,38.3,31.2,22.0,0000.0,0013.08,0006.28,0005.51
2022-08-19 06:23:00,,0829.6,5.01,0.00,29.5,27.6,00.0,38.3,31.3,22.2,0000.0,0013.17,0006.25,0005.53
2022-08-19 06:24:00,,0829.6,5.00,0.00,29.5,27.8,00.0,38.3,31.3,22.2,0000.0,0013.62,0006.25,0005.54
2022-08-19 06:25:00,,0829.6,5.00,0.00,29.5,27.9,00.0,38.3,31.3,22.2,0000.0,0013.70,0006.26,0005.53
2022-08-19 06:26:00,,0829.6,5.00,0.00,29.5,28.0,00.0,38.3,31.3,22.3,0000.0,0013.51,0006.29,0005.54
2022-08-19 06:27:00,,0829.6,4.99,0.00,29.5,28.1,00.0,38.3,31.4,22.2,0000.0,0014.14,0006.34,0005.55
2022-08-19 06:28:00,,0829.6,5.00,0.00,29.5,28.2,00.0,38.3,31.4,22.2,0000.0,0014.14,0006.35,0005.55
2022-08-19 06:29:00,,0829.6,5.00,0.00,29.5,28.3,00.0,38.3,31.4,22.0,0000.0,0013.96,0006.33,0005.53
2022-08-19 06:30:00,,0829.6,5.01,0.00,29.6,28.4,00.0,38.3,31.5,22.0,0000.0,0013.86,0006.30,0005.51
2022-08-19 06:31:00,,0829.5,5.00,0.00,29.6,28.5,00.0,38.3,31.5,21.9,0000.0,0014.05,0006.31,0005.51
2022-08-19 06:32:00,,0829.6,5.00,0.00,29.6,28.5,00.0,38.3,31.5,21.9,0000.0,0013.96,0006.32,0005.49
2022-08-19 06:33:00,,0829.6,5.00,0.00,29.6,28.6,00.0,38.3,31.6,21.9,0000.0,0012.92,0006.31,0005.49
2022-08-19 06:34:00,,0829.6,5.00,0.00,29.7,28.6,00.0,38.4,31.6,21.8,0000.0,0012.71,0006.28,0005.48
2022-08-19 06:35:00,,0829.6,4.99,0.00,29.7,28.7,00.0,38.4,31.6,21.9,0000.0,0012.69,0006.25,0005.47
2022-08-19 06:36:00,,0829.5,4.99,0.00,29.7,28.7,00.0,38.4,31.7,22.1,0000.0,0013.32,0006.25,0005.47
2022-08-19 06:37:00,,0829.5,5.00,0.00,29.7,28.8,00.0,38.4,31.7,21.9,0000.0,0014.28,0006.25,0005.48
2022-08-19 06:38:00,,0829.5,5.00,0.00,29.8,28.8,00.0,38.5,31.7,22.2,0000.0,0014.30,0006.21,0005.46
2022-08-19 06:39:00,,0829.6,5.00,0.00,29.8,28.8,00.0,38.5,31.7,21.9,0000.0,0014.48,0006.22,0005.46
2022-08-19 06:40:00,,0829.5,5.00,0.00,29.8,28.2,00.0,38.4,31.5,21.8,0000.0,0014.43,0006.21,0005.47
2022-08-19 06:41:00,,0829.5,5.00,0.00,29.7,27.6,00.0,38.4,31.4,21.9,0000.0,0014.33,0006.22,0005.48
2022-08-19 06:42:00,,0829.5,5.00,0.00,29.6,27.5,00.0,38.3,31.3,21.9,0000.0,0014.45,0006.20,0005.48
2022-08-19 06:43:00,,0829.5,5.00,0.00,29.6,27.5,00.0,38.3,31.3,22.2,0000.0,0014.17,0006.20,0005.49
2022-08-19 06:44:00,,0829.5,5.00,0.00,29.5,27.6,00.0,38.3,31.3,22.4,0000.0,0013.94,0006.17,0005.49
2022-08-19 06:45:00,,0829.5,5.01,0.00,29.5,27.7,00.0,38.3,31.3,22.6,0000.0,0013.89,0006.21,0005.49
2022-08-19 06:46:00,,0829.5,5.00,0.00,29.5,27.8,00.0,38.3,31.3,22.4,0000.0,0013.39,0006.27,0005.50
2022-08-19 06:47:00,,0829.5,4.99,0.00,29.5,27.9,00.0,38.3,31.4,22.4,0000.0,0012.81,0006.22,0005.48
2022-08-19 06:48:00,,0829.5,5.00,0.00,29.5,28.1,00.0,38.3,31.4,22.1,0000.0,0011.58,0006.23,0005.48
2022-08-19 06:49:00,,0829.5,5.00,0.00,29.5,28.2,00.0,38.3,31.4,22.3,0000.0,0011.22,0006.27,0005.49
2022-08-19 06:50:00,,0829.5,5.00,0.00,29.6,28.3,00.0,38.3,31.4,22.6,0000.0,0011.05,0006.27,0005.49
2022-08-19 06:51:00,,0829.5,5.01,0.00,29.6,28.3,00.0,38.3,31.5,22.7,0000.0,0011.19,0006.27,0005.49
2022-08-19 06:52:00,,0829.5,5.00,0.00,29.6,28.4,00.0,38.3,31.5,22.4,0000.0,0010.91,0006.32,0005.50
2022-08-19 06:53:00,,0829.5,5.01,0.00,29.6,28.5,00.0,38.4,31.5,22.1,0000.0,0011.66,0006.34,0005.50
2022-08-19 06:54:00,,0829.5,5.00,0.00,29.6,28.5,00.0,38.4,31.6,21.9,0000.0,0011.85,0006.39,0005.50
2022-08-19 06:55:00,,0829.5,5.00,0.00,29.7,28.6,00.0,38.4,31.6,21.9,0000.0,0011.90,0006.40,0005.49
2022-08-19 06:56:00,,0829.5,5.00,0.00,29.7,28.6,00.0,38.4,31.6,21.9,0000.0,0012.17,0006.39,0005.48
2022-08-19 06:57:00,,0829.5,5.00,0.00,29.7,28.7,00.0,38.4,31.6,21.9,0000.0,0012.17,0006.36,0005.48
2022-08-19 06:58:00,,0829.5,5.00,0.00,29.7,28.7,00.0,38.4,31.7,22.3,0000.0,0012.98,0006.42,0005.51
2022-08-19 06:59:00,,0829.5,5.00,0.00,29.8,28.8,00.0,38.4,31.7,22.4,0000.0,0013.14,0006.46,0005.51
